Location: Colorado Springs
(38.8340°N, 104.8210°W)
Time: 02:04:58
(UTC-06:00)

N. Korean satellite - Pass Details

Date: 14 October 2017
Orbit: 459 x 517 km, 97.2° (Epoch: 22 October)

Event Time Altitude Azimuth Distance (km) Brightness Sun altitude
Rises 18:56:36 0° 163° (SSE) 2,551 10.1 -7.6°
Reaches altitude 10° 18:58:41 10° 162° (SSE) 1,665 9.1 -8.0°
Maximum altitude 19:02:15 74° 77° (ENE) 502 6.4 -8.7°
Drops below altitude 10° 19:05:46 10° 352° (N) 1,646 9.3 -9.3°
Sets 19:07:49 0° 351° (N) 2,520 10.3 -9.7°
